Regional Weather Roundup
Issued by NWS Kansas City/Pleasant Hill, MO

Home | Current Version | Previous Version | Text Only | Print | Product List | Glossary On
Versions: 1 2 3 4 5 6 7 8 9 10 11 12 13 14 15 16 17 18 19 20 21 22 23 24 25 26 27 28 29 30 31 32 33 34 35 36 37 38 39 40 41 42 43 44 45 46 47 48 49 50
315
ASUS43 KEAX 291910
RWREAX

WEATHER ROUNDUP FOR EASTERN KANSAS AND NORTHWEST MISSOURI
NATIONAL WEATHER SERVICE KANSAS CITY/PLEASANT HILL MO
200 PM CDT SUN MAY 29 2016

KSZ040-057-103>105-MOZ028-029-037-043-292000-
...KANSAS CITY METROPOLITAN AREA...

CITY           SKY/WX    TMP DP  RH WIND       PRES   REMARKS
K.C. INTL      MOSUNNY   83  57  41 VRB3      30.10F
K.C. DOWNTOWN  SUNNY     85  56  37 SW5       30.08F
LEES SUMMIT    SUNNY     84  56  38 N6        30.11F
OLATHE - IXD   SUNNY     84  57  39 SW8       30.12S
OLATHE - OJC   SUNNY     82  58  43 VRB6      30.11S
LAWRENCE       SUNNY     85  56  37 W7        30.10S

$$

MOZ001>008-011>017-020>025-030>033-038>040-044>046-053-054-292000-
...NORTHERN AND CENTRAL MISSOURI...

CITY           SKY/WX    TMP DP  RH WIND       PRES   REMARKS
ST. JOSEPH     SUNNY     86  58  38 W9        30.08F
MOSBY          CLEAR     82  55  39 W6        30.10S
WARRENSBURG    MOSUNNY   82  54  36 S5        30.10F
WHITEMAN AFB   MOSUNNY   83  57  40 VRB2      30.10S
CLINTON        MOSUNNY   84  64  51 W5        30.12S
SEDALIA        SUNNY     85  54  34 CALM      30.12S
WARSAW         NOT AVBL
CHILLICOTHE      N/A     84  62  47 VRB6      30.09F
KIRKSVILLE     MOSUNNY   81  62  52 W8        30.10F

$$

MOZ041-047>049-056>058-063>065-088>090-097-292000-
...EASTERN AND SOUTHERN MISSOURI...

CITY           SKY/WX    TMP DP  RH WIND       PRES   REMARKS
ST. LOUIS INTL PTSUNNY   85  57  38 NW12      30.10F
SPIRIT OF STL  PTSUNNY   86  60  41 NW8       30.08F
COLUMBIA       MOSUNNY   82  57  42 W6        30.11F
JEFFERSON CITY SUNNY     85  56  37 CALM      30.10F
ROLLA          CLOUDY    81  59  47 W7        30.12F
SPRINGFIELD    CLOUDY    82  62  50 W8        30.14S
BRANSON        CLOUDY    81  59  47 W6        30.16F
JOPLIN         SUNNY     85  64  49 NW7       30.12F
WEST PLAINS    MOSUNNY   83  62  49 VRB5      30.15F

$$

IAZ060-094-KSZ022-034>040-054-083-096-NEZ052-066-093-292000-
...KANSAS...SOUTHEAST NEBRASKA AND IOWA...

CITY           SKY/WX    TMP DP  RH WIND       PRES   REMARKS
TOPEKA         SUNNY     86  55  34 W7        30.09S
MANHATTAN      SUNNY     87  61  41 SW7       30.08F
EMPORIA        CLOUDY    84  62  47 S5        30.11F
CHANUTE        CLOUDY    82  65  56 SW9       30.12S
WICHITA        CLOUDY    85  62  46 W6        30.10S
OMAHA          MOSUNNY   82  58  43 W5        30.06F
LINCOLN        SUNNY     84  56  38 W10       30.06F
FALLS CITY     SUNNY     83  61  47 W15       30.07F
LAMONI         MOSUNNY   79  63  57 SW8       30.09F
DES MOINES     MOSUNNY   80  54  40 W6        30.06F

$$





USA.gov is the U.S. government's official web portal to all federal, state and local government web resources and services.